Time,TemperatureF,DewpointF,PressureIn,WindDirection,WindDirectionDegrees,WindSpeedMPH,WindSpeedGustMPH,Humidity,HourlyPrecipIn,Conditions,Clouds,dailyrainin,SoftwareType,DateUTC
2013-04-13 00:02:00,47.0,45.0,29.99,WNW,283,0.0,-999.0,91,-99.99,,,0.00,,2013-04-13 05:02:00,
2013-04-13 00:12:00,47.0,45.0,29.99,WNW,283,0.0,-999.0,91,-99.99,,,0.00,,2013-04-13 05:12:00,
2013-04-13 00:22:00,47.0,45.0,29.99,WNW,283,0.0,-999.0,91,-99.99,,,0.00,,2013-04-13 05:22:00,
2013-04-13 00:32:00,47.0,45.0,30.00,WNW,283,0.0,-999.0,92,-99.99,,,0.00,,2013-04-13 05:32:00,
2013-04-13 00:43:00,47.0,45.0,30.00,WNW,283,0.0,-999.0,92,-99.99,,,0.00,,2013-04-13 05:43:00,
2013-04-13 00:52:00,47.0,45.0,30.00,WNW,283,0.0,-999.0,92,-99.99,,,0.00,,2013-04-13 05:52:00,
2013-04-13 01:02:00,47.0,45.0,30.00,WNW,283,1.0,-999.0,92,-99.99,,,0.00,,2013-04-13 06:02:00,
2013-04-13 01:12:00,47.0,45.0,30.00,WNW,283,1.0,-999.0,92,-99.99,,,0.00,,2013-04-13 06:12:00,
2013-04-13 01:23:00,46.0,44.0,30.01,WNW,283,0.0,-999.0,93,-99.99,,,0.00,,2013-04-13 06:23:00,
2013-04-13 01:34:00,46.0,44.0,30.00,WNW,283,0.0,-999.0,94,-99.99,,,0.00,,2013-04-13 06:34:00,
2013-04-13 01:45:00,46.0,44.0,30.00,WNW,283,0.0,-999.0,94,-99.99,,,0.00,,2013-04-13 06:45:00,
2013-04-13 01:55:00,46.0,44.0,30.00,WNW,283,0.0,-999.0,94,-99.99,,,0.00,,2013-04-13 06:55:00,
2013-04-13 02:04:00,45.0,43.0,30.00,WNW,283,0.0,-999.0,94,-99.99,,,0.00,,2013-04-13 07:04:00,
2013-04-13 02:14:00,45.0,43.0,30.00,WNW,283,0.0,-999.0,94,-99.99,,,0.00,,2013-04-13 07:14:00,
2013-04-13 02:23:00,45.0,43.0,30.00,WNW,283,0.0,-999.0,94,-99.99,,,0.00,,2013-04-13 07:23:00,
2013-04-13 02:34:00,45.0,44.0,30.00,WNW,283,0.0,-999.0,95,-99.99,,,0.00,,2013-04-13 07:34:00,
2013-04-13 02:45:00,45.0,44.0,30.00,WNW,283,0.0,-999.0,95,-99.99,,,0.00,,2013-04-13 07:45:00,
2013-04-13 02:55:00,44.0,43.0,29.99,WNW,283,0.0,-999.0,95,-99.99,,,0.00,,2013-04-13 07:55:00,
2013-04-13 03:05:00,45.0,44.0,30.00,WNW,283,1.0,-999.0,96,-99.99,,,0.00,,2013-04-13 08:05:00,
2013-04-13 03:15:00,45.0,44.0,30.00,WNW,283,1.0,-999.0,96,-99.99,,,0.00,,2013-04-13 08:15:00,
2013-04-13 03:25:00,45.0,44.0,30.00,WNW,283,1.0,-999.0,96,-99.99,,,0.00,,2013-04-13 08:25:00,
2013-04-13 03:34:00,44.0,43.0,30.00,WNW,283,1.0,-999.0,96,-99.99,,,0.00,,2013-04-13 08:34:00,
2013-04-13 03:45:00,44.0,43.0,30.00,WNW,283,1.0,-999.0,96,-99.99,,,0.00,,2013-04-13 08:45:00,
2013-04-13 03:54:00,44.0,43.0,30.01,WNW,283,0.0,-999.0,96,-99.99,,,0.00,,2013-04-13 08:54:00,
2013-04-13 04:04:00,44.0,43.0,30.01,WNW,283,0.0,-999.0,96,-99.99,,,0.00,,2013-04-13 09:04:00,
2013-04-13 04:14:00,44.0,43.0,30.01,WNW,283,0.0,-999.0,96,-99.99,,,0.00,,2013-04-13 09:14:00,
2013-04-13 04:24:00,44.0,43.0,30.01,WNW,283,0.0,-999.0,96,-99.99,,,0.00,,2013-04-13 09:24:00,
2013-04-13 04:35:00,44.0,43.0,30.01,WNW,283,0.0,-999.0,96,-99.99,,,0.00,,2013-04-13 09:35:00,
2013-04-13 04:48:00,44.0,43.0,30.01,WNW,283,0.0,-999.0,96,-99.99,,,0.00,,2013-04-13 09:48:00,
2013-04-13 04:53:00,44.0,43.0,30.01,WNW,283,0.0,-999.0,96,-99.99,,,0.00,,2013-04-13 09:53:00,
2013-04-13 05:05:00,44.0,43.0,30.01,WNW,283,0.0,-999.0,96,-99.99,,,0.00,,2013-04-13 10:05:00,
2013-04-13 05:15:00,43.0,42.0,30.01,WNW,283,0.0,-999.0,96,-99.99,,,0.00,,2013-04-13 10:15:00,
2013-04-13 05:24:00,43.0,42.0,30.01,WNW,283,0.0,-999.0,96,-99.99,,,0.00,,2013-04-13 10:24:00,
2013-04-13 05:35:00,43.0,42.0,30.02,WNW,283,0.0,-999.0,96,-99.99,,,0.00,,2013-04-13 10:35:00,
2013-04-13 05:45:00,43.0,42.0,30.02,WNW,283,0.0,-999.0,96,-99.99,,,0.00,,2013-04-13 10:45:00,
2013-04-13 05:55:00,43.0,42.0,30.02,WNW,283,0.0,-999.0,96,-99.99,,,0.00,,2013-04-13 10:55:00,
2013-04-13 06:05:00,42.0,41.0,30.02,WNW,283,0.0,-999.0,96,-99.99,,,0.00,,2013-04-13 11:05:00,
2013-04-13 06:13:00,42.0,41.0,30.02,WNW,283,0.0,-999.0,96,-99.99,,,0.00,,2013-04-13 11:13:00,
2013-04-13 06:23:00,42.0,41.0,30.03,WNW,283,0.0,-999.0,96,-99.99,,,0.00,,2013-04-13 11:23:00,
2013-04-13 06:33:00,42.0,41.0,30.04,WNW,283,0.0,-999.0,97,-99.99,,,0.00,,2013-04-13 11:33:00,
2013-04-13 06:53:00,42.0,41.0,30.05,WNW,283,0.0,-999.0,97,-99.99,,,0.00,,2013-04-13 11:53:00,
2013-04-13 07:08:00,42.0,41.0,30.06,WNW,283,0.0,-999.0,97,-99.99,,,0.00,,2013-04-13 12:08:00,
2013-04-13 07:14:00,42.0,41.0,30.06,WNW,283,0.0,-999.0,97,-99.99,,,0.00,,2013-04-13 12:14:00,
2013-04-13 07:23:00,43.0,42.0,30.07,WNW,283,0.0,-999.0,97,-99.99,,,0.00,,2013-04-13 12:23:00,
2013-04-13 07:46:00,44.0,43.0,30.07,WNW,283,0.0,-999.0,97,-99.99,,,0.00,,2013-04-13 12:46:00,
2013-04-13 07:55:00,45.0,44.0,30.07,WNW,283,0.0,-999.0,98,-99.99,,,0.00,,2013-04-13 12:55:00,
2013-04-13 08:05:00,45.0,44.0,30.07,WNW,283,0.0,-999.0,98,-99.99,,,0.00,,2013-04-13 13:05:00,
2013-04-13 08:14:00,45.0,44.0,30.07,WNW,283,0.0,-999.0,98,-99.99,,,0.00,,2013-04-13 13:14:00,
2013-04-13 09:04:00,53.0,45.0,30.09,NNE,15,4.0,-999.0,75,-99.99,,,0.00,,2013-04-13 14:04:00,
2013-04-13 09:14:00,53.0,45.0,30.09,NNE,15,4.0,-999.0,75,-99.99,,,0.00,,2013-04-13 14:14:00,
2013-04-13 09:23:00,55.0,46.0,30.09,North,354,4.0,-999.0,72,-99.99,,,0.00,,2013-04-13 14:23:00,
2013-04-13 09:37:00,55.0,46.0,30.09,North,354,6.0,-999.0,71,-99.99,,,0.00,,2013-04-13 14:37:00,
2013-04-13 09:45:00,55.0,46.0,30.09,North,354,6.0,-999.0,71,-99.99,,,0.00,,2013-04-13 14:45:00,
2013-04-13 09:54:00,56.0,47.0,30.09,North,8,4.0,-999.0,71,-99.99,,,0.00,,2013-04-13 14:54:00,
2013-04-13 10:04:00,57.0,47.0,30.09,NW,312,5.0,-999.0,68,-99.99,,,0.00,,2013-04-13 15:04:00,
2013-04-13 10:14:00,57.0,47.0,30.09,NW,312,5.0,-999.0,68,-99.99,,,0.00,,2013-04-13 15:14:00,
2013-04-13 10:28:00,59.0,45.0,30.09,NNW,335,5.0,-999.0,60,-99.99,,,0.00,,2013-04-13 15:28:00,
2013-04-13 10:35:00,59.0,45.0,30.09,NNW,335,5.0,-999.0,60,-99.99,,,0.00,,2013-04-13 15:35:00,
2013-04-13 10:44:00,59.0,45.0,30.09,NNW,335,5.0,-999.0,60,-99.99,,,0.00,,2013-04-13 15:44:00,
2013-04-13 10:57:00,59.0,45.0,30.09,NNW,335,5.0,-999.0,60,-99.99,,,0.00,,2013-04-13 15:57:00,
2013-04-13 11:21:00,63.0,45.0,30.07,ENE,62,4.0,-999.0,52,-99.99,,,0.00,,2013-04-13 16:21:00,
2013-04-13 11:37:00,63.0,46.0,30.07,NNW,345,5.0,-999.0,54,-99.99,,,0.00,,2013-04-13 16:37:00,
2013-04-13 11:48:00,63.0,46.0,30.07,NNW,345,5.0,-999.0,54,-99.99,,,0.00,,2013-04-13 16:48:00,
2013-04-13 11:56:00,63.0,45.0,30.07,ENE,62,4.0,-999.0,52,-99.99,,,0.00,,2013-04-13 16:56:00,
2013-04-13 12:06:00,63.0,45.0,30.07,ENE,62,4.0,-999.0,52,-99.99,,,0.00,,2013-04-13 17:06:00,
2013-04-13 12:20:00,63.0,45.0,30.07,ENE,62,4.0,-999.0,52,-99.99,,,0.00,,2013-04-13 17:20:00,
2013-04-13 13:04:00,65.0,43.0,30.05,NW,324,3.0,-999.0,45,-99.99,,,0.00,,2013-04-13 18:04:00,
2013-04-13 13:15:00,65.0,45.0,30.04,NNE,29,4.0,-999.0,48,-99.99,,,0.00,,2013-04-13 18:15:00,
2013-04-13 13:24:00,67.0,46.0,30.04,ENE,66,3.0,-999.0,46,-99.99,,,0.00,,2013-04-13 18:24:00,
2013-04-13 13:32:00,67.0,46.0,30.04,ENE,66,3.0,-999.0,46,-99.99,,,0.00,,2013-04-13 18:32:00,
2013-04-13 13:42:00,67.0,46.0,30.04,ENE,66,3.0,-999.0,46,-99.99,,,0.00,,2013-04-13 18:42:00,
2013-04-13 13:53:00,68.0,45.0,30.03,West,259,4.0,-999.0,44,-99.99,,,0.00,,2013-04-13 18:53:00,
2013-04-13 14:03:00,68.0,45.0,30.03,West,259,4.0,-999.0,44,-99.99,,,0.00,,2013-04-13 19:03:00,
2013-04-13 14:12:00,68.0,45.0,30.03,West,259,4.0,-999.0,44,-99.99,,,0.00,,2013-04-13 19:12:00,
2013-04-13 14:22:00,70.0,46.0,30.01,SE,128,3.0,-999.0,42,-99.99,,,0.00,,2013-04-13 19:22:00,
2013-04-13 14:33:00,70.0,46.0,30.01,North,4,3.0,-999.0,43,-99.99,,,0.00,,2013-04-13 19:33:00,
2013-04-13 14:42:00,70.0,46.0,30.01,North,4,3.0,-999.0,43,-99.99,,,0.00,,2013-04-13 19:42:00,
2013-04-13 14:53:00,70.0,46.0,30.01,North,4,3.0,-999.0,43,-99.99,,,0.00,,2013-04-13 19:53:00,
2013-04-13 15:02:00,70.0,47.0,30.00,NW,322,5.0,-999.0,44,-99.99,,,0.00,,2013-04-13 20:02:00,
2013-04-13 15:12:00,70.0,47.0,30.00,NW,322,5.0,-999.0,44,-99.99,,,0.00,,2013-04-13 20:12:00,
2013-04-13 15:22:00,70.0,47.0,30.00,NW,322,5.0,-999.0,44,-99.99,,,0.00,,2013-04-13 20:22:00,
2013-04-13 15:32:00,70.0,47.0,30.00,NW,322,5.0,-999.0,44,-99.99,,,0.00,,2013-04-13 20:32:00,
2013-04-13 15:42:00,70.0,47.0,30.00,NW,322,5.0,-999.0,44,-99.99,,,0.00,,2013-04-13 20:42:00,
2013-04-13 15:52:00,72.0,45.0,29.98,NE,48,3.0,-999.0,38,-99.99,,,0.00,,2013-04-13 20:52:00,
2013-04-13 16:02:00,72.0,45.0,29.98,NE,48,3.0,-999.0,38,-99.99,,,0.00,,2013-04-13 21:02:00,
2013-04-13 16:12:00,72.0,45.0,29.98,NE,48,3.0,-999.0,38,-99.99,,,0.00,,2013-04-13 21:12:00,
2013-04-13 16:22:00,72.0,45.0,29.97,East,87,3.0,-999.0,38,-99.99,,,0.00,,2013-04-13 21:22:00,
2013-04-13 16:33:00,72.0,45.0,29.96,NW,304,5.0,-999.0,38,-99.99,,,0.00,,2013-04-13 21:33:00,
2013-04-13 16:43:00,72.0,45.0,29.96,NW,304,5.0,-999.0,38,-99.99,,,0.00,,2013-04-13 21:43:00,
2013-04-13 16:53:00,72.0,46.0,29.96,NNE,30,3.0,-999.0,39,-99.99,,,0.00,,2013-04-13 21:53:00,
2013-04-13 17:03:00,72.0,46.0,29.96,ENE,71,3.0,-999.0,40,-99.99,,,0.00,,2013-04-13 22:03:00,
2013-04-13 17:12:00,72.0,46.0,29.96,ENE,71,3.0,-999.0,40,-99.99,,,0.00,,2013-04-13 22:12:00,
2013-04-13 17:22:00,71.0,43.0,29.96,NNE,13,4.0,-999.0,37,-99.99,,,0.00,,2013-04-13 22:22:00,
2013-04-13 17:33:00,71.0,43.0,29.96,NNE,13,4.0,-999.0,37,-99.99,,,0.00,,2013-04-13 22:33:00,
2013-04-13 17:42:00,71.0,43.0,29.96,NNE,13,4.0,-999.0,37,-99.99,,,0.00,,2013-04-13 22:42:00,
2013-04-13 17:52:00,73.0,46.0,29.96,East,92,2.0,-999.0,38,-99.99,,,0.00,,2013-04-13 22:52:00,
2013-04-13 18:02:00,73.0,46.0,29.96,East,92,2.0,-999.0,38,-99.99,,,0.00,,2013-04-13 23:02:00,
2013-04-13 18:12:00,73.0,46.0,29.96,East,92,2.0,-999.0,38,-99.99,,,0.00,,2013-04-13 23:12:00,
2013-04-13 18:22:00,73.0,46.0,29.96,East,92,2.0,-999.0,38,-99.99,,,0.00,,2013-04-13 23:22:00,
2013-04-13 18:32:00,73.0,46.0,29.96,East,92,2.0,-999.0,38,-99.99,,,0.00,,2013-04-13 23:32:00,
2013-04-13 21:22:00,56.0,48.0,29.99,NNE,21,1.0,-999.0,74,-99.99,,,0.00,,2013-04-14 02:22:00,
2013-04-13 21:32:00,56.0,48.0,29.99,NNE,21,1.0,-999.0,74,-99.99,,,0.00,,2013-04-14 02:32:00,
2013-04-13 21:42:00,56.0,48.0,29.99,NNE,21,1.0,-999.0,74,-99.99,,,0.00,,2013-04-14 02:42:00,
2013-04-13 21:52:00,56.0,48.0,29.99,NNE,21,1.0,-999.0,74,-99.99,,,0.00,,2013-04-14 02:52:00,